Location: *
(35.2348°S, 91.3916°E)
Time: 14:30:59
(UTC+00:00)

H-2A R/B - Pass Details

Date: 23 October 2019
Orbit: 734 x 837 km, 98.3° (Epoch: 12 November)

Event Time Altitude Azimuth Distance (km) Brightness Sun altitude
Rises 13:48:22 0° 153° (SSE) 3,217 5.3 -18.3°
Reaches altitude 10° 13:51:01 10° 140° (SE) 2,297 4.4 -18.8°
Enters shadow 13:53:50 23° 109° (ESE) 1,585 3.3 -19.3°
